Stations météo

réclame
Mon MeteoGroup
Hemavan A, Suède (2101): Température de l'air & dewpoint: 10.07.2019 04:00:00 - 16.07.2019 04:00:00 (CEST)Hemavan A, Suède (2101): Vitesse du vent: 10.07.2019 04:00:00 - 16.07.2019 04:00:00 (CEST)Hemavan A, Suède (2101): Direction du vent: 10.07.2019 04:00:00 - 16.07.2019 04:00:00 (CEST)Hemavan A, Suède (2101): reduced air pressure: 10.07.2019 04:00:00 - 16.07.2019 04:00:00 (CEST)Hemavan A, Suède (2101): visibility: 10.07.2019 04:00:00 - 16.07.2019 04:00:00 (CEST)
Date & Time tt [°C] td [°C] ff [km/h] ff [knt] dd ppp [hPa] vv [km]
16.07.2019 04:00:00 7,3 7,1 4 2 NNE 1015,3 35
16.07.2019 03:00:00 7,3 7,0 0 0 N 1015,2 27
16.07.2019 02:00:00 7,4 7,1 4 2 ESE 1015,0 40
16.07.2019 01:00:00 7,3 7,0 0 0 N 1014,7 45
16.07.2019 00:00:00 7,0 6,7 4 2 SSE 1014,5 50
15.07.2019 23:00:00 8,2 7,6 0 0 N 1013,8 50
15.07.2019 22:00:00 8,8 7,7 4 2 ESE 1013,2 17
15.07.2019 21:00:00 9,1 7,2 4 2 NW 1012,8 13
15.07.2019 20:00:00 9,1 7,5 7 4 NW 1012,5 50
15.07.2019 19:00:00 9,1 7,5 7 4 NW 1012,3 50
15.07.2019 18:00:00 8,7 6,8 7 4 NW 1012,3 20
15.07.2019 17:00:00 8,7 6,3 11 6 WNW 1012,1 35
15.07.2019 16:00:00 8,7 6,3 11 6 NW 1012,2 15
15.07.2019 15:00:00 8,7 6,3 11 6 NNW 1012,1 50
15.07.2019 14:00:00 8,3 6,1 11 6 NW 1012,1 19
15.07.2019 13:00:00 8,3 6,4 7 4 NNW 1012,0 11
15.07.2019 12:00:00 8,3 5,1 11 6 NW 1012,0 30
15.07.2019 11:00:00 8,1 4,7 14 8 NW 1011,9 50
15.07.2019 10:00:00 8,6 4,6 18 10 NW 1011,6 40
15.07.2019 09:00:00 8,4 4,2 18 10 NW 1011,7 50
15.07.2019 08:00:00 7,7 3,7 18 10 NW 1012,2 50
15.07.2019 07:00:00 7,7 3,5 14 8 NNW 1012,5 50
15.07.2019 06:00:00 7,4 3,4 14 8 NW 1012,8 50
15.07.2019 05:00:00 6,9 3,5 14 8 NNW 1013,2 50
15.07.2019 04:00:00 6,8 3,8 11 6 NNW 1013,4 50
15.07.2019 03:00:00 6,5 3,6 7 4 NNW 1013,7 50
15.07.2019 02:00:00 6,7 3,3 11 6 NW 1013,9 50
15.07.2019 01:00:00 7,2 2,9 11 6 NNW 1014,1 50
15.07.2019 00:00:00 7,3 3,5 11 6 NW 1014,2 50
14.07.2019 23:00:00 7,4 3,6 14 8 NNW 1014,6 50
14.07.2019 22:00:00 7,6 5,1 14 8 WNW 1014,7 17
14.07.2019 21:00:00 8,4 5,3 14 8 NW 1014,5 24
14.07.2019 20:00:00 9,2 5,2 11 6 NW 1014,5 50
14.07.2019 19:00:00 9,8 5,6 14 8 NW 1014,5 50
14.07.2019 18:00:00 10,8 5,3 14 8 N 1014,4 50
14.07.2019 17:00:00 11,3 5,2 18 10 N 1014,4 45
14.07.2019 16:00:00 11,1 5,2 18 10 NNW 1014,5 50
14.07.2019 15:00:00 11,8 6,1 14 8 NNW 1014,2 50
14.07.2019 14:00:00 12,3 6,1 18 10 NNW 1014,0 45
14.07.2019 13:00:00 13,6 6,7 14 8 NNW 1013,8 40
14.07.2019 12:00:00 12,7 5,8 18 10 NNW 1014,0 45
14.07.2019 11:00:00 11,6 6,1 18 10 NNW 1014,3 45
14.07.2019 10:00:00 12,1 6,6 14 8 NNW 1014,2 50
14.07.2019 09:00:00 12,0 6,3 18 10 NNW 1014,2 35
14.07.2019 08:00:00 10,5 6,6 11 6 WNW 1014,5 50
14.07.2019 07:00:00 9,9 6,4 14 8 WNW 1014,6 50
14.07.2019 06:00:00 9,5 7,3 14 8 WNW 1014,8 45
14.07.2019 05:00:00 9,8 7,2 11 6 WNW 1014,8 50
14.07.2019 04:00:00 10,0 7,2 18 10 W 1014,8 50
14.07.2019 03:00:00 10,1 8,0 11 6 WNW 1014,8 50
14.07.2019 02:00:00 10,4 7,8 11 6 WNW 1015,0 50
14.07.2019 01:00:00 10,7 8,1 11 6 NW 1014,8 50
14.07.2019 00:00:00 10,6 8,4 7 4 NW 1014,8 50
13.07.2019 23:00:00 10,7 8,6 14 8 NW 1014,6 50
13.07.2019 22:00:00 11,2 9,1 18 10 NW 1014,2 50
13.07.2019 21:00:00 12,5 9,5 14 8 NW 1013,7 50
13.07.2019 20:00:00 13,9 10,1 18 10 NW 1013,1 40
13.07.2019 19:00:00 15,3 10,7 18 10 WNW 1012,5 45
13.07.2019 18:00:00 16,5 10,6 18 10 WNW 1012,1 45
13.07.2019 17:00:00 17,8 10,9 18 10 WNW 1011,8 35
13.07.2019 16:00:00 18,5 11,3 18 10 W 1011,5 45
13.07.2019 15:00:00 18,6 11,9 14 8 WNW 1011,5 45
13.07.2019 14:00:00 18,5 11,1 11 6 WNW 1011,7 40
13.07.2019 13:00:00 18,1 12,1 7 4 NNW 1012,1 50
13.07.2019 12:00:00 16,5 10,8 4 2 N 1012,7 45
13.07.2019 11:00:00 14,8 10,2 4 2 W 1013,2 35
13.07.2019 10:00:00 13,4 9,8 4 2 NNE 1013,6 35
13.07.2019 09:00:00 12,2 10,1 7 4 NNW 1013,6 40
13.07.2019 08:00:00 11,9 9,5 4 2 NNE 1013,4 35
13.07.2019 07:00:00 11,1 9,8 4 2 N 1013,5 30
13.07.2019 06:00:00 11,1 10,3 4 2 NNW 1013,4 21
13.07.2019 05:00:00 10,9 10,0 4 2 NNE 1013,3 21
13.07.2019 04:00:00 10,7 9,9 4 2 NE 1013,2 13
13.07.2019 03:00:00 10,6 10,1 7 4 NNW 1013,0 13
13.07.2019 02:00:00 10,1 9,6 0 0 N 1012,8 6
13.07.2019 01:00:00 11,1 10,3 7 4 NW 1012,4 15
13.07.2019 00:00:00 11,5 11,0 0 0 N 1012,1 17
12.07.2019 23:00:00 12,8 12,0 0 0 N 1011,5 25
12.07.2019 22:00:00 13,8 11,1 4 2 E 1011,2 7
12.07.2019 21:00:00 14,5 11,1 7 4 SE 1010,7 50
12.07.2019 20:00:00 14,8 11,6 11 6 SE 1010,4 35
12.07.2019 19:00:00 15,8 10,1 14 8 S 1010,0 50
12.07.2019 18:00:00 17,1 10,2 7 4 WNW 1009,3 40
12.07.2019 17:00:00 18,1 11,2 7 4 SSW 1008,8 45
12.07.2019 16:00:00 19,0 9,5 7 4 SE 1008,7 50
12.07.2019 15:00:00 20,5 10,9 7 4 S 1008,4 35
12.07.2019 14:00:00 18,9 9,7 11 6 S 1009,1 35
12.07.2019 13:00:00 18,9 9,4 11 6 S 1009,3 45
12.07.2019 12:00:00 18,3 11,6 11 6 S 1009,6 40
12.07.2019 11:00:00 16,1 10,4 11 6 S 1010,4 50
12.07.2019 10:00:00 15,3 10,5 11 6 S 1010,6 35
12.07.2019 09:00:00 14,9 10,1 14 8 SSE 1010,6 45
12.07.2019 08:00:00 13,3 11,0 7 4 N 1010,9 35
12.07.2019 07:00:00 11,4 9,8 4 2 N 1011,3 19
12.07.2019 06:00:00 10,1 9,6 4 2 N 1011,5 13
12.07.2019 05:00:00 7,6 7,5 0 0 N 1011,9 9
12.07.2019 04:00:00 6,7 6,6 4 2 S 1012,1 0,4
12.07.2019 03:00:00 - - - - - - -
12.07.2019 02:00:00 7,5 7,2 4 2 SSE 1011,7 8
12.07.2019 01:00:00 8,6 7,8 4 2 SSE 1011,3 9
12.07.2019 00:00:00 11,0 9,8 4 2 SSE 1010,8 18
11.07.2019 23:00:00 12,6 10,7 4 2 NNW 1010,2 23
11.07.2019 22:00:00 15,8 10,6 4 2 NNW 1009,2 40
11.07.2019 21:00:00 17,8 10,9 7 4 NW 1008,6 50
11.07.2019 20:00:00 18,0 11,1 4 2 S 1008,7 50
11.07.2019 19:00:00 18,4 10,7 7 4 WSW 1008,5 40
11.07.2019 18:00:00 15,7 12,8 4 2 SE 1009,2 40
11.07.2019 17:00:00 18,1 10,5 4 2 SSW 1008,8 4,5
11.07.2019 16:00:00 19,8 9,4 11 6 WNW 1008,5 45
11.07.2019 15:00:00 20,6 6,5 7 4 WNW 1008,5 45
11.07.2019 14:00:00 21,1 8,4 7 4 WNW 1008,6 50
11.07.2019 13:00:00 20,0 8,7 4 2 N 1009,1 40
11.07.2019 12:00:00 19,7 8,4 4 2 N 1009,9 50
11.07.2019 11:00:00 18,6 7,4 7 4 SE 1010,4 40
11.07.2019 10:00:00 17,5 7,8 7 4 SSE 1010,9 50
11.07.2019 09:00:00 16,5 8,0 7 4 SE 1011,2 45
11.07.2019 08:00:00 15,3 9,6 4 2 W 1011,7 40
11.07.2019 07:00:00 13,3 9,7 0 0 N 1012,4 30
11.07.2019 06:00:00 11,2 9,5 4 2 NNW 1013,2 30
11.07.2019 05:00:00 10,3 9,5 0 0 N 1013,5 22
11.07.2019 04:00:00 9,2 8,1 0 0 N 1014,1 16
11.07.2019 03:00:00 10,1 8,9 4 2 SE 1013,8 20
11.07.2019 02:00:00 10,7 9,5 4 2 SE 1013,8 25
11.07.2019 01:00:00 11,8 9,5 4 2 NNW 1013,6 45
11.07.2019 00:00:00 12,8 9,4 4 2 N 1013,4 45
10.07.2019 23:00:00 14,1 8,7 7 4 WNW 1012,8 50
10.07.2019 22:00:00 15,5 8,7 11 6 WNW 1012,2 45
10.07.2019 21:00:00 17,3 8,4 11 6 WNW 1011,8 45
10.07.2019 20:00:00 18,2 8,5 18 10 NW 1011,6 50
10.07.2019 19:00:00 19,4 8,1 18 10 WNW 1011,0 45
10.07.2019 18:00:00 20,1 7,8 18 10 WNW 1011,0 30
10.07.2019 17:00:00 20,7 8,0 18 10 NW 1011,1 35
10.07.2019 16:00:00 20,9 6,4 18 10 NW 1011,5 50
10.07.2019 15:00:00 21,5 5,8 11 6 NW 1011,8 35
10.07.2019 14:00:00 20,9 8,2 11 6 W 1012,0 35
10.07.2019 13:00:00 20,5 8,2 7 4 WNW 1012,3 50
10.07.2019 12:00:00 19,8 6,9 7 4 W 1012,8 45
10.07.2019 11:00:00 18,4 6,3 4 2 WNW 1013,4 50
10.07.2019 10:00:00 17,4 6,3 7 4 WNW 1013,8 35
10.07.2019 09:00:00 15,4 7,2 4 2 N 1014,6 45
10.07.2019 08:00:00 14,0 6,4 0 0 N 1014,9 40
10.07.2019 07:00:00 12,4 6,4 0 0 N 1015,6 45
10.07.2019 06:00:00 9,0 5,9 4 2 SSW 1016,6 50
10.07.2019 05:00:00 6,3 5,7 4 2 SSE 1017,5 22
10.07.2019 04:00:00 5,5 4,5 4 2 E 1017,6 45

tt = Température de l'air
td = dewpoint
ff = Vitesse du vent
dd = Direction du vent
ppp = reduced air pressure
vv = visibility

stations d'obs. à proximité